Weather History for Macau International, Macao

Change the Weather History Date:

Wednesday, September 25, 2013

  Actual Average Record
Temperature  
Mean Temperature 83 °F -  
Max Temperature 86 °F 80 °F 90 °F (2014)
Min Temperature 80 °F 74 °F 73 °F (2002)
Cooling Degree Days 18    
Growing Degree Days 33 (Base 50)    
Moisture  
Dew Point 75 °F    
Average Humidity 76    
Maximum Humidity 82    
Minimum Humidity 66    
Precipitation  
Precipitation 0.00 in - - ()
Sea Level Pressure  
Sea Level Pressure 29.81 in    
Wind  
Wind Speed 11 mph ()    
Max Wind Speed 15 mph    
Max Gust Speed -    
Visibility 6.4 miles    
Events      
Averages and records for this station are not official NWS values.
T = Trace of Precipitation, MM = Missing Value Source: Averaged Metar Reports

Daily Weather History Graph

Daily Weather History Graph

Search for Another Location

Airport:

Trip Planner

Search our weather history database for the weather conditions in past years. The results will help you decide how hot, cold, wet, or windy it might be!

Date:

Astronomy

Sep. 25, 2013 Rise Set
Actual Time 6:15 AM CST 6:19 PM CST
Civil Twilight 5:52 AM CST 6:41 PM CST
Nautical Twilight 5:27 AM CST 7:07 PM CST
Astronomical Twilight 5:00 AM CST 7:33 PM CST
Moon 10:34 PM CST (9/25) 11:16 AM CST (9/25)
Length of Visible Light 12h 48m
Length of Day
12h 04m
Waning Gibbous, 69% of the Moon is Illuminated
Sep 25
Waning Gibbous
Sep 27
Last Quarter
Oct 5
New
Oct 12
First Quarter
Oct 19
Full

Hourly Weather History & Observations

Time (CST) Temp. Heat Index Dew Point Humidity Pressure Visibility Wind Dir Wind Speed Gust Speed Precip Events Conditions
12:00 AM 82.4 °F 89.5 °F 75.2 °F 79% 29.80 in 6.2 mi East 12.7 mph - N/A   Scattered Clouds
12:30 AM 82.4 °F 89.5 °F 75.2 °F 79% 29.80 in 6.2 mi East 12.7 mph - N/A   Partly Cloudy
1:00 AM 82.4 °F 89.5 °F 75.2 °F 79% 29.77 in 6.2 mi East 13.8 mph - N/A   Partly Cloudy
1:30 AM 82.4 °F 89.5 °F 75.2 °F 79% 29.77 in 6.2 mi East 13.8 mph - N/A   Partly Cloudy
2:00 AM 80 °F - 75 °F 82% 29.80 in 7 mi East 8.1 mph - -  
2:00 AM 82.4 °F 89.5 °F 75.2 °F 79% 29.77 in 6.2 mi East 12.7 mph - N/A   Partly Cloudy
2:30 AM 82.4 °F 89.5 °F 75.2 °F 79% 29.77 in 6.2 mi East 13.8 mph - N/A   Partly Cloudy
3:00 AM 82.4 °F 89.5 °F 75.2 °F 79% 29.77 in 6.2 mi East 12.7 mph - N/A   Partly Cloudy
3:30 AM 82.4 °F 89.5 °F 75.2 °F 79% 29.77 in 6.2 mi East 15.0 mph - N/A   Partly Cloudy
4:00 AM 82.4 °F 89.5 °F 75.2 °F 79% 29.74 in 6.2 mi East 13.8 mph - N/A   Partly Cloudy
4:30 AM 82.4 °F 89.5 °F 75.2 °F 79% 29.74 in 6.2 mi East 13.8 mph - N/A   Partly Cloudy
5:00 AM 80 °F - 75 °F 81% 29.79 in 7 mi East 10.4 mph - -  
5:00 AM 82.4 °F 89.5 °F 75.2 °F 79% 29.77 in 6.2 mi East 11.5 mph - N/A   Partly Cloudy
5:30 AM 82.4 °F 89.5 °F 75.2 °F 79% 29.77 in 6.2 mi ENE 10.4 mph - N/A   Partly Cloudy
6:00 AM 82.4 °F 89.5 °F 75.2 °F 79% 29.77 in 6.2 mi ENE 10.4 mph - N/A   Partly Cloudy
6:30 AM 82.4 °F 88.2 °F 73.4 °F 74% 29.77 in 6.2 mi ENE 10.4 mph - N/A   Partly Cloudy
7:00 AM 82.4 °F 88.2 °F 73.4 °F 74% 29.80 in 6.2 mi ENE 10.4 mph - N/A   Partly Cloudy
7:30 AM 82.4 °F 88.2 °F 73.4 °F 74% 29.80 in 6.2 mi ENE 11.5 mph - N/A   Partly Cloudy
8:00 AM 82.4 °F 88.2 °F 73.4 °F 74% 29.80 in 6.2 mi ENE 12.7 mph - N/A   Partly Cloudy
8:30 AM 82.4 °F 88.2 °F 73.4 °F 74% 29.80 in 6.2 mi ENE 12.7 mph - N/A   Scattered Clouds
9:00 AM 86.0 °F 93.4 °F 73.4 °F 66% 29.83 in 6.2 mi ENE 10.4 mph - N/A   Scattered Clouds
9:30 AM 86.0 °F 93.4 °F 73.4 °F 66% 29.83 in 6.2 mi ENE 8.1 mph - N/A   Partly Cloudy
10:00 AM 84.2 °F 90.9 °F 73.4 °F 70% 29.83 in 6.2 mi East 10.4 mph - N/A   Partly Cloudy
10:30 AM 84.2 °F 90.9 °F 73.4 °F 70% 29.83 in 6.2 mi East 11.5 mph - N/A   Partly Cloudy
11:00 AM 85 °F - 76 °F 67% 29.86 in 9 mi East 8.1 mph - -  
11:00 AM 86.0 °F 95.1 °F 75.2 °F 70% 29.83 in 6.2 mi East 11.5 mph - N/A   Partly Cloudy
11:30 AM 86.0 °F 95.1 °F 75.2 °F 70% 29.83 in 6.2 mi East 10.4 mph - N/A   Partly Cloudy
12:00 PM 84.2 °F 92.3 °F 75.2 °F 74% 29.83 in 6.2 mi East 11.5 mph - N/A   Partly Cloudy
12:30 PM 84.2 °F 92.3 °F 75.2 °F 74% 29.83 in 6.2 mi East 10.4 mph - N/A   Partly Cloudy
1:00 PM 84.2 °F 92.3 °F 75.2 °F 74% 29.80 in 6.2 mi ESE 12.7 mph - N/A   Partly Cloudy
1:30 PM 84.2 °F 92.3 °F 75.2 °F 74% 29.80 in 6.2 mi ESE 12.7 mph - N/A   Partly Cloudy
2:00 PM 85 °F - 76 °F 68% 29.83 in 8 mi East 8.1 mph - -  
2:00 PM 84.2 °F 92.3 °F 75.2 °F 74% 29.80 in 6.2 mi ESE 11.5 mph - N/A   Partly Cloudy
2:30 PM 86.0 °F 95.1 °F 75.2 °F 70% 29.80 in 6.2 mi ESE 11.5 mph - N/A   Partly Cloudy
3:00 PM 84.2 °F 90.9 °F 73.4 °F 70% 29.77 in 6.2 mi ESE 11.5 mph - N/A   Scattered Clouds
3:30 PM 84.2 °F 90.9 °F 73.4 °F 70% 29.77 in 6.2 mi ESE 13.8 mph - N/A   Scattered Clouds
4:00 PM 84.2 °F 92.3 °F 75.2 °F 74% 29.77 in 6.2 mi ESE 13.8 mph - N/A   Partly Cloudy
4:30 PM 84.2 °F 92.3 °F 75.2 °F 74% 29.77 in 6.2 mi ESE 15.0 mph - N/A   Scattered Clouds
5:00 PM 83 °F - 76 °F 73% 29.81 in 8 mi ESE 8.1 mph - -  
5:00 PM 82.4 °F 89.5 °F 75.2 °F 79% 29.77 in 6.2 mi ESE 13.8 mph - N/A   Scattered Clouds
5:30 PM 82.4 °F 89.5 °F 75.2 °F 79% 29.77 in 6.2 mi ESE 13.8 mph - N/A   Scattered Clouds
6:00 PM 82.4 °F 89.5 °F 75.2 °F 79% 29.80 in 6.2 mi ESE 13.8 mph - N/A   Scattered Clouds
6:30 PM 82.4 °F 89.5 °F 75.2 °F 79% 29.80 in 6.2 mi ESE 12.7 mph - N/A   Scattered Clouds
7:00 PM 82.4 °F 89.5 °F 75.2 °F 79% 29.83 in 6.2 mi ESE 13.8 mph - N/A   Scattered Clouds
7:30 PM 82.4 °F 89.5 °F 75.2 °F 79% 29.83 in 6.2 mi ESE 12.7 mph - N/A   Partly Cloudy
8:00 PM 80 °F - 75 °F 79% 29.87 in 7 mi ESE 9.2 mph - -  
8:00 PM 82.4 °F 89.5 °F 75.2 °F 79% 29.83 in 6.2 mi ESE 12.7 mph - N/A   Partly Cloudy
8:30 PM 82.4 °F 89.5 °F 75.2 °F 79% 29.86 in 6.2 mi East 15.0 mph - N/A   Partly Cloudy
9:00 PM 82.4 °F 89.5 °F 75.2 °F 79% 29.86 in 6.2 mi East 13.8 mph - N/A   Partly Cloudy
9:30 PM 82.4 °F 89.5 °F 75.2 °F 79% 29.89 in 6.2 mi East 13.8 mph - N/A   Partly Cloudy
10:00 PM 82.4 °F 89.5 °F 75.2 °F 79% 29.89 in 6.2 mi East 13.8 mph - N/A   Scattered Clouds
10:30 PM 82.4 °F 89.5 °F 75.2 °F 79% 29.89 in 6.2 mi East 13.8 mph - N/A   Scattered Clouds
11:00 PM 80 °F - 75 °F 82% 29.90 in 7 mi ESE 10.4 mph - -  
11:00 PM 82.4 °F 89.5 °F 75.2 °F 79% 29.89 in 6.2 mi East 13.8 mph - N/A   Scattered Clouds
11:30 PM 82.4 °F 89.5 °F 75.2 °F 79% 29.89 in 6.2 mi East 10.4 mph - N/A   Scattered Clouds